Theta_e
319 319 318 319 319 320 320 320 318 317 317 317 317 317 317 317 317 316 315 317 318 316 316 316 315 315 315 315 316 316 318 319 316 316 316 315 314 315 316 315 314 314 314 315 315 316 315 316 314 313 316 318 318 320 321 320 330 345 344 331 329 327 318 317 318 319 318 315 315 315 316 316 310 309 308 306 304 303 302 301 301 301 301 301 301 300 299 299
320 320 319 319 320 321 321 321 320 319 318 318 318 318 318 318 318 316 314 316 318 317 316 316 315 315 315 316 316 317 320 321 317 316 316 315 315 316 315 314 314 314 315 315 316 315 316 317 312 313 320 321 319 321 323 323 326 337 336 325 330 332 317 315 318 315 317 316 315 315 314 315 312 310 309 309 305 303 303 301 301 301 300 300 299 299 299 298
320 320 320 320 320 321 322 322 321 320 319 319 319 319 319 319 319 318 315 314 317 318 315 316 316 314 316 317 318 318 318 320 320 317 315 315 315 314 313 313 314 315 315 315 316 315 316 317 312 313 321 321 321 323 323 323 322 326 328 323 333 335 317 313 317 315 317 316 316 315 313 314 312 310 310 308 306 304 304 303 302 301 301 301 300 298 298 298
320 319 319 319 319 320 322 323 323 322 321 321 321 321 320 320 319 319 317 314 315 318 316 316 316 315 316 317 319 318 317 322 323 317 315 315 313 312 312 313 314 315 315 314 315 315 315 314 312 315 319 322 327 324 320 322 321 321 321 322 328 326 316 314 316 316 318 316 317 316 314 314 311 311 308 307 308 306 304 304 303 302 300 301 300 298 298 298
319 319 318 318 319 320 321 323 324 323 323 323 322 322 321 321 321 320 319 315 314 317 317 316 316 316 315 317 319 315 319 327 322 314 315 314 312 312 312 312 314 315 314 314 314 314 314 313 315 321 320 320 326 324 320 319 318 317 318 323 325 319 314 314 315 317 316 315 318 315 313 313 311 311 306 308 313 308 304 304 302 301 300 300 299 298 297 296
317 317 317 318 319 319 320 323 324 324 324 324 322 322 321 321 321 321 320 316 313 316 317 315 316 316 315 317 316 314 323 327 319 314 315 313 312 311 311 312 314 315 314 314 313 313 316 316 319 323 320 319 319 318 319 319 317 317 320 322 321 317 314 314 315 317 317 317 316 313 313 312 312 310 305 307 310 306 303 302 300 299 299 298 297 297 298 297
315 316 316 317 318 318 319 321 323 324 323 323 322 321 321 321 321 320 320 318 314 315 317 316 316 317 316 316 315 320 330 325 315 314 314 312 312 312 311 311 313 314 314 314 313 315 319 322 322 318 319 322 317 316 318 318 317 316 321 322 318 315 314 315 315 317 319 317 314 311 313 315 314 311 305 304 304 302 301 299 298 298 297 297 297 297 297 297
314 315 316 317 318 318 318 320 322 322 322 322 321 320 319 320 320 319 319 319 315 314 317 316 316 319 317 317 323 328 328 320 314 314 314 313 312 312 312 311 311 312 314 315 314 315 320 321 319 316 318 319 315 316 316 315 318 317 320 322 318 316 316 315 315 319 319 314 314 314 315 315 313 310 305 303 301 300 299 298 297 297 296 296 298 297 295 295
314 315 316 317 318 318 319 319 321 321 321 320 320 318 318 319 319 318 318 319 316 314 317 316 315 319 317 318 326 331 323 316 314 314 313 313 313 313 312 310 310 311 314 316 313 313 318 318 317 316 317 316 313 316 315 314 317 317 319 320 317 317 317 316 315 317 317 313 315 317 315 311 307 308 306 302 301 299 298 298 297 297 297 297 298 297 294 294
313 315 316 318 318 318 319 320 321 321 320 319 319 318 317 318 318 317 317 318 317 314 317 316 315 317 317 316 322 326 320 314 313 313 313 313 313 313 313 311 310 311 313 315 313 312 316 316 315 315 316 316 314 314 315 313 315 315 317 317 315 315 315 315 315 316 315 312 314 317 316 310 305 309 310 303 300 299 298 298 297 297 298 297 297 296 295 294
313 314 316 317 318 319 319 320 321 321 321 320 318 318 317 317 317 317 317 317 316 315 317 316 315 316 316 318 324 324 316 312 312 312 312 312 313 313 312 312 311 311 312 314 313 311 312 312 312 314 316 315 314 315 313 313 314 314 314 314 316 317 314 315 314 314 313 311 314 318 315 309 306 311 312 304 300 299 298 298 297 298 298 298 298 298 295 294
312 314 315 317 318 319 320 321 322 322 321 320 318 318 317 317 317 317 317 317 316 316 317 315 315 316 316 320 326 321 313 312 311 310 310 311 312 312 313 313 312 311 311 313 313 311 311 311 312 314 315 313 314 314 312 312 313 313 313 313 317 320 317 316 313 313 313 312 314 314 312 309 308 311 310 303 300 299 298 298 298 298 298 298 299 299 296 294
312 313 314 316 317 319 320 321 322 322 321 320 319 317 317 316 316 316 317 316 316 316 317 315 315 316 319 322 319 314 313 312 310 310 310 310 310 313 314 312 312 311 311 312 312 311 310 310 311 313 314 313 315 312 311 312 312 313 312 311 317 320 320 317 312 313 312 313 314 311 314 314 311 309 305 301 300 299 299 298 298 298 298 298 298 299 298 295
312 313 314 314 316 318 320 321 322 322 321 320 318 317 316 315 315 317 317 315 315 316 316 315 315 317 320 320 314 312 314 313 311 311 310 309 311 314 315 311 311 312 311 312 311 310 310 310 311 312 312 313 313 310 312 316 315 313 310 317 320 315 324 324 313 314 312 312 313 310 315 315 312 309 304 301 299 299 299 298 297 298 298 298 298 299 299 296
312 314 314 314 315 317 319 321 322 322 321 320 317 316 315 314 315 316 316 314 314 316 316 317 316 317 320 318 313 313 314 313 313 312 310 311 310 312 313 309 311 312 311 312 311 310 310 310 311 314 313 312 313 314 318 323 324 319 312 323 327 316 325 327 311 314 313 312 312 311 316 316 313 310 303 301 299 299 299 297 297 298 297 298 298 298 299 298
312 314 314 314 315 316 319 321 322 322 321 318 317 316 313 314 316 316 317 315 314 316 317 319 317 317 321 317 314 313 313 315 315 313 312 311 309 310 310 309 312 313 313 311 311 311 310 313 313 313 313 311 316 325 325 326 332 331 318 319 328 319 318 317 310 314 314 312 312 311 316 316 314 309 303 301 300 299 299 298 297 297 297 297 297 297 298 298
312 314 314 314 314 315 318 320 322 323 320 318 316 314 313 314 314 315 317 314 316 317 316 319 317 316 319 315 314 316 315 315 315 314 312 311 310 310 309 311 312 311 312 311 311 313 310 313 311 311 318 313 317 327 323 324 329 331 324 318 322 319 312 312 311 313 312 312 312 311 312 313 313 308 303 302 300 299 299 298 297 297 297 297 296 297 298 299
311 313 314 314 314 316 317 320 322 323 320 317 315 314 314 314 314 316 317 315 317 317 316 319 317 314 314 314 316 317 316 315 315 314 312 312 310 309 311 310 310 309 313 313 312 314 312 317 318 321 329 316 315 325 321 324 323 319 321 317 317 315 310 311 311 311 312 312 312 312 312 311 311 307 303 302 299 299 299 298 297 296 296 297 297 297 298 299
312 313 314 314 314 315 317 320 322 322 320 316 315 315 312 313 316 317 314 313 316 315 317 319 317 314 313 315 317 315 315 314 313 312 312 312 309 310 312 310 313 314 318 322 320 318 317 324 326 324 330 319 314 322 318 321 321 313 315 315 314 314 310 309 309 310 312 311 312 312 311 311 311 309 305 301 299 299 299 298 297 296 296 297 297 297 298 299
312 313 313 314 314 315 318 319 321 322 318 314 315 314 313 317 322 322 317 317 316 314 317 319 317 318 317 316 317 314 314 313 312 312 312 311 309 311 312 312 323 327 324 325 322 320 318 321 324 319 325 323 314 317 314 314 316 312 312 314 313 312 310 308 309 311 311 311 313 312 311 311 311 310 306 302 300 299 298 298 297 296 296 296 297 297 298 298
313 312 314 315 315 316 318 319 321 321 315 313 313 311 311 313 316 318 318 321 314 307 314 319 315 317 316 315 315 312 313 314 312 312 311 310 310 312 311 312 325 333 326 320 319 322 318 317 324 324 324 320 312 313 312 311 311 310 311 312 312 312 310 308 309 310 308 310 314 313 311 310 309 308 305 302 300 299 298 298 297 296 296 297 297 297 297 297
312 312 313 316 316 317 318 318 320 320 315 313 310 308 308 309 311 311 312 319 317 309 313 316 313 316 314 313 314 311 312 316 314 314 312 309 311 312 314 315 320 327 324 318 323 329 325 321 324 323 318 313 310 311 311 310 310 310 311 312 313 312 312 312 310 309 308 309 313 314 310 309 309 308 306 303 300 299 299 298 298 296 296 296 296 296 296 295
313 311 312 316 317 317 318 318 319 317 314 312 307 306 306 308 311 310 310 318 320 316 318 319 318 319 317 313 313 312 313 315 315 316 312 308 312 313 315 320 321 321 318 317 323 324 325 330 324 316 312 309 310 311 311 310 310 312 312 312 314 313 313 314 312 312 311 309 311 312 308 307 307 307 307 303 301 300 299 299 299 297 297 296 296 296 295 295
313 311 311 316 317 317 317 317 317 314 313 312 307 305 306 308 310 310 314 320 321 320 319 318 317 319 320 314 311 313 314 314 314 313 310 309 312 311 314 320 320 320 318 320 324 321 322 323 316 313 312 310 311 312 312 311 313 321 318 312 313 313 312 313 312 312 312 312 312 309 307 309 308 306 307 304 300 300 300 299 299 297 297 297 296 296 295 296
312 310 311 315 317 317 315 315 314 312 314 314 307 304 306 310 310 310 315 320 320 321 317 314 316 319 317 312 311 314 313 313 313 310 307 309 311 311 312 314 315 321 321 316 316 317 317 314 311 313 313 312 312 314 317 315 315 324 323 316 314 313 313 313 313 311 311 315 313 307 310 314 310 307 307 303 300 300 299 298 298 297 296 297 297 295 296 298
312 311 310 315 318 315 314 317 313 310 316 315 308 303 305 310 310 310 318 321 319 321 319 315 317 317 313 312 313 313 315 315 310 307 306 307 309 311 314 314 314 318 318 313 314 317 314 310 313 317 316 317 315 316 322 318 314 318 318 317 316 312 312 313 311 311 314 315 309 306 310 312 308 308 309 305 301 300 299 297 297 296 296 296 295 295 296 297
312 311 311 314 317 313 314 319 313 312 318 315 309 303 304 309 309 310 318 318 316 321 323 317 315 315 314 313 312 313 319 316 308 306 306 307 307 308 315 318 316 313 312 315 322 322 313 309 315 317 317 318 315 317 320 316 317 320 316 315 314 311 312 311 308 310 313 310 307 306 307 307 306 308 308 305 303 301 298 297 297 296 296 295 294 294 296 296
312 312 311 314 317 310 309 315 311 310 315 311 305 304 306 309 309 314 316 310 314 322 323 318 313 313 314 311 310 313 315 314 313 309 304 306 307 308 314 319 322 320 313 316 325 323 313 311 316 317 315 316 317 322 320 315 318 319 313 309 308 307 309 308 307 309 309 306 307 307 306 307 309 309 306 301 302 302 299 297 296 295 295 294 294 294 295 295
311 311 310 313 317 311 308 310 307 310 312 305 303 305 307 306 310 321 317 307 316 322 318 316 312 313 315 312 312 315 313 312 315 310 305 305 306 308 311 313 319 318 312 314 322 321 313 311 317 320 317 317 321 324 320 317 314 313 310 308 310 310 308 306 306 307 307 306 308 308 306 308 313 313 307 301 302 303 300 298 296 295 295 294 293 294 294 294
312 312 310 313 317 314 310 308 306 310 309 304 303 306 308 311 318 324 316 310 318 322 315 313 314 315 316 315 315 315 313 313 312 308 307 307 306 308 307 308 312 314 315 315 316 319 312 307 312 315 315 318 320 314 311 313 311 309 311 313 315 314 310 309 310 308 309 311 311 310 308 308 311 313 307 304 306 304 302 300 297 296 295 293 292 293 293 293
312 312 311 314 318 315 310 309 310 307 303 302 304 307 312 319 326 326 319 313 313 317 316 315 316 315 315 318 319 315 313 315 312 309 310 309 309 310 307 312 318 320 328 325 317 319 313 307 311 313 311 314 313 309 309 314 313 312 316 314 314 317 315 315 314 310 312 318 315 309 306 306 309 311 307 305 305 303 303 301 298 297 294 292 292 292 293 293
312 312 312 315 318 315 310 310 312 307 301 303 306 312 317 316 318 322 324 319 311 315 320 319 318 317 317 319 321 319 315 317 313 311 317 315 313 316 316 322 326 323 330 329 322 321 318 315 313 310 308 310 312 311 311 314 315 313 314 313 313 319 320 319 317 314 316 319 312 303 303 305 307 309 308 306 304 302 302 300 298 297 294 292 292 292 292 293
312 311 313 315 317 317 312 309 311 306 302 304 308 319 322 313 314 319 320 319 312 315 321 322 321 321 319 319 325 325 318 319 317 311 318 317 314 322 323 321 323 320 321 322 320 321 323 321 312 309 311 311 313 313 314 317 313 309 311 313 316 319 320 320 320 320 320 320 309 299 301 307 307 306 305 304 302 300 301 300 298 297 293 292 291 291 293 293
314 312 313 315 316 318 316 314 313 306 302 306 311 319 321 315 317 319 317 318 316 317 320 322 321 320 320 321 328 327 318 320 320 313 317 317 315 324 322 315 317 320 320 317 319 321 322 324 318 314 314 311 309 312 320 324 314 308 312 315 317 318 319 320 321 322 320 318 310 301 303 310 311 306 299 296 295 296 298 297 296 295 292 292 291 292 293 293
315 313 313 314 315 317 317 317 317 309 303 308 311 315 316 315 318 318 319 322 320 318 319 320 321 319 321 325 327 324 317 318 319 314 317 319 320 328 328 321 318 320 321 319 320 317 316 323 320 309 307 308 309 310 314 319 315 309 309 311 313 316 318 317 316 316 313 310 308 305 306 310 307 301 295 293 292 293 294 293 292 293 292 291 292 291 292 292
314 313 312 313 314 317 317 318 318 310 305 307 309 313 313 313 319 319 318 321 322 322 319 319 323 321 322 326 326 321 315 316 318 316 319 319 318 323 326 327 320 315 317 319 320 316 314 321 315 304 304 307 306 306 306 312 316 310 306 310 313 312 310 309 311 311 308 308 309 308 308 309 307 302 295 292 293 292 291 291 291 292 291 291 291 290 291 292
314 312 312 312 312 315 316 318 317 309 306 307 308 313 313 312 320 323 321 319 320 324 322 320 322 322 324 325 323 322 318 316 317 318 321 319 315 318 320 322 318 313 314 317 319 318 316 318 312 307 311 304 298 302 304 305 309 310 310 311 310 307 304 305 310 310 307 309 311 309 308 309 311 307 296 292 293 292 291 291 291 291 291 290 290 290 291 292
313 312 312 312 312 314 315 316 314 308 306 307 308 315 315 311 315 318 322 319 316 321 322 320 320 320 324 323 323 324 319 317 318 318 322 319 314 318 318 317 315 312 313 313 315 317 315 316 313 306 308 304 298 304 307 302 302 307 309 307 307 310 309 307 308 311 311 312 313 312 310 309 311 309 300 295 293 292 291 290 291 291 290 290 290 290 291 292
312 312 312 312 311 313 314 315 312 306 308 311 312 316 316 312 311 313 319 319 316 319 320 320 317 315 320 322 323 323 317 317 318 316 318 317 315 317 315 314 315 311 310 311 314 316 313 315 316 304 301 304 302 306 313 308 300 300 302 302 304 307 309 308 307 309 312 314 314 314 314 313 311 309 307 301 294 292 291 290 291 291 290 290 290 290 291 291
312 312 313 312 311 313 314 313 310 307 310 315 315 316 315 313 312 312 315 316 314 316 318 320 318 315 317 319 320 321 317 318 318 316 316 315 315 315 312 313 316 311 308 310 312 314 311 314 317 306 300 304 305 306 311 311 305 301 301 302 302 302 306 308 305 305 309 311 313 313 313 315 309 305 308 304 296 293 292 290 291 291 289 290 289 290 291 290
312 313 313 312 312 313 312 311 311 310 311 314 315 314 314 314 314 313 314 314 314 314 315 319 319 316 316 316 317 318 317 318 316 314 316 316 314 314 312 314 317 312 309 310 311 313 313 314 315 309 305 307 309 308 306 308 309 306 304 304 303 303 306 308 306 306 306 308 311 312 313 314 306 301 304 303 297 294 292 291 292 290 289 290 289 290 291 291
312 313 312 311 312 312 311 312 314 314 313 314 315 314 314 314 315 315 314 313 313 313 313 315 317 317 315 315 316 318 318 321 318 314 316 316 313 313 314 315 314 311 312 313 312 312 314 314 312 311 310 307 305 304 303 303 304 303 305 306 305 304 305 309 311 309 305 304 306 307 309 311 303 300 302 301 297 294 292 292 292 290 289 289 289 290 291 292
314 312 309 309 310 311 312 314 314 315 315 314 315 315 315 315 315 315 315 314 313 313 312 313 314 315 315 314 315 317 317 320 319 316 317 317 314 314 316 314 311 311 312 311 309 308 311 313 311 312 314 309 302 301 302 301 298 300 303 303 303 304 305 307 309 309 308 307 304 304 308 309 302 299 299 297 296 294 292 292 291 290 289 289 289 290 291 291
314 312 308 308 309 310 313 313 313 314 315 314 315 315 315 315 315 315 316 315 314 315 313 312 313 313 315 315 313 315 316 316 316 316 316 318 316 311 311 312 310 310 312 312 311 310 311 314 313 314 316 315 308 305 306 303 298 299 302 301 302 303 304 305 304 305 307 307 305 306 310 310 302 297 296 295 294 293 292 291 291 290 289 289 289 290 290 291
314 313 310 308 308 310 312 312 311 313 313 313 314 315 314 315 315 314 315 314 315 316 315 315 315 313 314 315 313 313 315 313 315 316 314 317 315 306 303 306 306 307 312 314 312 311 313 315 314 314 315 316 313 311 315 311 302 299 300 300 301 302 302 304 304 304 306 306 306 306 308 309 303 298 296 295 293 293 291 290 290 290 290 289 289 289 290 291
315 315 312 309 308 309 311 311 311 313 313 313 313 313 314 314 314 314 315 315 314 314 315 317 317 313 313 315 313 313 314 312 314 316 315 318 318 307 300 301 304 307 311 311 309 311 315 314 311 312 314 314 313 311 315 314 306 303 303 300 299 301 301 302 304 305 306 305 306 306 306 307 305 301 299 295 293 292 292 290 290 290 290 289 289 289 290 291
314 314 313 311 310 310 311 311 311 312 312 312 313 314 314 313 313 314 315 315 314 314 314 315 314 313 314 314 313 313 314 312 313 313 314 319 317 306 298 299 302 306 308 307 307 312 316 313 309 310 311 311 312 311 312 312 308 308 308 304 300 300 301 303 304 304 305 306 307 308 307 307 307 305 302 297 294 293 291 290 290 290 289 289 289 290 290 291
315 314 312 311 312 312 311 312 312 312 312 312 312 313 314 314 313 313 314 315 315 314 314 315 314 314 314 314 314 314 313 313 313 312 312 315 313 306 301 300 300 303 305 304 304 308 312 312 310 310 309 309 310 310 311 311 309 308 309 309 304 300 299 302 303 303 305 306 307 308 308 308 308 306 304 300 296 294 292 290 290 290 289 289 289 290 290 290
315 314 312 310 311 311 310 311 312 313 312 312 312 312 312 312 312 312 313 315 315 314 314 315 314 313 314 314 314 314 313 314 314 313 312 313 313 310 308 306 303 300 301 302 303 305 308 310 309 309 309 309 308 308 308 308 308 307 307 308 307 303 300 301 301 302 303 304 305 306 306 307 306 305 304 302 299 296 293 290 290 290 289 289 289 289 290 290
315 315 313 311 310 310 310 310 311 312 312 311 312 312 310 310 311 311 312 314 315 314 314 314 314 314 314 314 313 313 313 313 314 315 314 313 314 312 311 313 309 300 298 300 303 304 306 309 310 309 309 309 308 308 308 308 307 308 307 307 307 306 304 304 303 304 304 304 304 304 304 304 303 303 302 301 300 297 293 291 290 289 289 289 289 289 289 289
315 314 313 312 312 310 310 310 310 312 312 311 312 312 311 311 310 310 311 312 313 314 313 314 314 313 313 314 313 313 313 313 313 313 313 313 314 313 311 313 311 305 300 299 302 304 304 307 311 310 309 310 310 308 308 306 305 305 306 306 305 306 307 307 306 306 306 305 305 304 303 303 302 301 301 300 299 297 294 291 289 289 289 288 289 289 289 289
314 312 312 314 314 312 311 310 310 312 312 311 311 311 311 311 310 310 311 311 312 312 313 314 314 313 314 314 313 313 312 312 314 315 315 315 315 314 312 310 310 309 302 298 301 304 304 306 309 309 310 310 307 305 304 304 306 307 308 307 306 305 305 306 306 306 305 305 305 305 304 304 303 302 300 299 298 296 294 291 290 289 289 288 288 289 289 289
Wind_Speed
18 18 19 20 21 21 22 22 23 23 24 24 24 24 25 27 27 26 24 23 23 17 11 6 6 9 10 9 10 10 8 10 13 18 14 9 13 11 10 10 10 11 10 9 12 9 7 8 9 15 11 3 2 1 3 2 2 5 3 4 2 1 1 3 5 5 4 3 3 4 1 8 7 3 5 6 12 10 10 10 7 9 9 9 12 12 13 17
17 18 18 19 20 21 21 21 22 22 22 23 23 24 24 25 27 26 23 22 22 18 12 7 5 10 10 10 8 5 5 7 11 15 13 12 13 9 8 9 9 10 10 11 13 10 6 6 8 10 7 2 3 2 2 2 3 4 3 3 1 4 1 2 6 5 4 6 3 3 1 5 5 5 4 4 5 7 10 6 5 9 7 8 10 12 17 20
16 17 18 18 19 20 21 21 21 21 21 22 22 23 23 24 26 27 24 21 21 18 12 8 3 9 11 9 7 3 5 5 6 8 11 12 9 8 8 8 8 9 11 11 10 8 5 6 7 5 4 3 2 2 2 2 2 2 3 3 4 5 1 3 4 5 5 7 6 2 1 3 1 2 4 7 6 4 8 6 4 6 5 5 6 12 17 19
15 17 17 18 18 19 20 21 20 20 21 21 22 22 22 23 24 26 25 21 19 18 13 9 4 7 12 10 7 2 4 5 3 5 9 9 7 8 8 8 9 9 10 11 9 7 6 5 4 2 4 3 3 2 2 2 1 1 2 2 6 4 2 2 4 6 5 6 7 4 2 4 2 3 5 11 8 1 6 7 7 9 9 7 5 9 14 15
14 15 16 17 17 18 19 20 20 20 20 20 21 22 22 22 23 25 26 21 18 18 13 8 5 3 11 11 7 1 4 4 2 5 6 5 6 8 8 9 8 8 10 11 10 8 8 6 5 4 4 2 4 4 1 2 2 1 2 4 6 3 3 3 5 4 4 4 5 4 3 3 1 4 4 9 7 4 6 6 9 11 10 9 8 9 11 12
14 14 15 16 16 17 18 19 19 19 19 20 20 21 22 22 23 24 25 22 17 16 13 7 5 3 8 11 9 1 3 2 3 2 3 3 6 7 8 10 8 8 8 10 12 11 9 7 6 4 3 3 3 1 1 3 2 0 4 3 3 3 3 3 4 3 4 6 5 4 3 3 5 4 1 4 4 6 6 7 10 10 12 13 12 10 9 9
13 14 14 15 16 16 17 18 18 19 19 19 20 21 22 22 23 23 24 22 16 15 13 6 3 4 7 10 8 2 4 3 3 1 1 2 5 6 7 8 8 8 7 10 14 9 6 7 6 3 3 3 1 0 2 4 3 2 3 4 2 3 4 5 5 4 6 8 3 3 4 4 6 4 2 4 5 6 8 10 12 13 14 15 11 8 8 9
13 13 14 14 15 16 16 17 17 18 18 18 19 21 22 23 24 23 23 21 16 14 12 5 1 6 8 7 6 3 2 3 2 2 0 1 3 6 6 6 8 8 6 11 11 4 4 6 4 2 3 1 1 2 3 4 4 2 4 4 2 2 2 4 6 5 7 7 3 5 4 5 7 6 5 5 6 7 9 10 11 12 11 11 9 8 8 8
12 13 13 14 15 15 16 17 17 17 18 18 19 20 22 24 24 24 23 20 15 13 11 5 1 7 6 3 5 3 2 3 2 2 1 1 3 5 6 6 8 8 7 9 9 6 4 2 0 1 1 1 1 3 3 3 2 3 4 3 2 4 4 0 3 5 6 4 4 6 1 2 5 5 4 5 7 8 9 9 9 9 9 8 8 7 8 8
11 12 13 14 14 15 16 16 17 17 17 18 19 20 22 23 25 25 22 18 14 13 10 4 1 5 8 3 5 2 3 3 2 1 1 1 2 3 4 5 8 7 6 6 8 9 4 3 2 2 3 0 2 3 1 2 2 3 2 3 3 5 5 2 2 4 4 2 4 6 1 3 4 0 1 7 8 8 9 9 7 8 8 7 7 7 9 9
11 12 13 14 14 15 16 16 17 17 17 18 19 20 21 23 25 25 20 16 13 12 9 2 1 3 6 4 4 3 4 3 3 3 2 1 1 2 2 4 6 7 6 5 6 6 5 5 4 2 2 1 2 3 1 2 2 2 3 5 7 6 5 3 4 4 4 1 4 9 2 1 2 4 4 10 9 9 10 9 7 8 7 7 7 6 7 9
11 12 12 14 15 15 16 16 17 17 18 18 18 20 20 22 24 23 19 14 12 12 7 2 2 4 4 3 3 4 4 4 3 4 3 2 2 2 2 3 6 7 5 4 3 3 4 3 4 3 0 1 1 2 0 2 1 1 2 4 8 8 6 4 3 4 5 3 4 9 3 1 5 6 4 10 10 8 9 9 7 8 7 7 7 6 6 8
10 11 12 13 14 15 16 16 17 17 18 19 19 20 20 21 23 22 17 11 11 10 5 1 3 6 3 1 2 4 5 4 4 5 4 3 1 1 2 3 5 6 5 4 2 3 3 2 5 4 1 2 1 2 1 1 2 1 2 1 4 7 6 5 1 3 5 4 6 7 1 5 10 9 3 10 11 10 9 8 7 7 6 6 6 6 5 7
9 10 11 12 13 15 16 17 18 18 19 19 19 20 20 21 21 19 12 8 11 9 3 0 4 5 2 1 3 4 4 3 3 3 3 3 2 1 2 4 4 5 5 4 3 3 3 2 4 4 1 2 1 3 2 5 3 1 1 2 2 2 5 7 1 5 4 3 5 6 4 7 9 8 6 9 11 12 11 9 8 7 6 6 6 6 5 7
8 9 10 11 13 14 15 17 17 18 19 19 20 20 21 22 20 16 9 6 13 9 2 2 4 4 3 0 3 5 4 3 2 1 1 3 3 1 2 4 1 2 4 3 3 2 2 2 4 3 1 1 3 3 3 4 3 2 1 3 3 1 5 9 3 7 6 3 3 6 4 6 7 8 8 8 9 11 10 9 9 8 8 7 6 6 5 7
9 9 10 11 12 13 15 16 17 19 19 19 21 21 22 22 17 15 9 7 14 9 4 2 3 3 2 1 3 6 5 6 5 2 1 3 3 1 3 2 2 2 2 2 2 1 1 3 3 2 0 2 4 4 3 4 4 3 1 3 4 3 4 6 4 4 6 2 2 5 5 5 5 7 8 8 9 10 10 10 10 9 9 8 6 6 6 6
11 10 10 11 12 13 14 16 17 19 19 20 21 22 23 19 15 14 9 7 12 4 4 2 2 2 0 2 3 3 4 6 6 3 2 2 3 3 3 2 3 3 2 1 1 1 2 3 1 0 2 3 3 4 4 3 3 4 2 2 5 4 3 4 6 5 3 4 4 5 6 8 6 6 10 10 10 11 11 11 11 10 8 7 7 6 6 6
12 12 11 11 12 13 14 15 16 18 20 20 20 23 22 15 13 11 6 6 8 1 2 2 1 1 2 2 2 3 3 5 4 4 4 2 3 4 2 3 3 3 3 3 1 2 2 2 2 1 4 4 3 5 2 4 3 4 4 3 4 4 4 5 5 4 1 3 6 4 6 11 8 6 10 10 11 12 12 11 10 9 8 7 7 6 7 6
13 12 11 12 12 12 13 14 16 17 20 19 19 21 17 10 9 5 2 7 4 2 1 3 2 1 2 3 2 1 1 2 4 5 5 2 2 2 2 3 3 3 3 2 2 3 1 3 4 2 3 2 2 4 6 7 7 6 5 4 4 5 7 7 6 6 3 4 8 8 9 12 9 7 11 11 10 11 10 9 8 8 8 7 7 6 7 6
13 12 11 12 11 12 12 13 14 16 18 18 19 16 8 5 5 3 6 8 2 3 2 5 4 2 2 1 1 1 2 2 3 5 5 2 1 1 3 3 6 5 3 0 3 3 4 3 3 4 6 6 7 6 6 5 6 4 2 4 6 5 8 8 6 6 2 3 8 9 9 12 10 9 11 11 10 10 9 9 10 9 8 8 8 7 7 6
14 12 10 11 11 11 11 12 13 15 15 15 15 9 1 1 2 3 5 7 8 5 4 6 3 3 4 2 2 1 1 1 2 3 4 2 1 4 1 2 5 3 2 0 2 3 5 1 5 8 9 8 6 5 3 2 3 3 3 4 5 5 8 9 6 5 1 3 7 6 6 11 11 10 9 10 11 13 14 14 14 13 11 9 9 9 8 6
15 13 10 10 10 10 11 11 11 12 12 11 9 6 5 4 4 2 1 4 9 4 4 5 2 3 4 3 3 1 3 0 3 4 4 1 1 3 1 3 4 1 3 3 3 5 4 3 10 8 6 5 2 1 2 2 3 2 2 1 5 4 5 8 6 3 0 1 6 6 5 8 10 11 10 12 14 15 16 17 16 15 14 11 9 9 8 7
17 15 11 10 10 10 10 10 10 11 9 7 6 7 6 4 5 4 2 1 7 4 2 3 2 2 2 2 4 4 3 2 3 4 3 2 1 2 3 4 3 2 1 2 2 1 2 6 8 3 6 6 1 1 3 1 2 3 3 1 5 4 2 5 5 4 3 3 5 8 8 7 8 12 12 12 14 12 12 13 10 12 13 11 10 9 9 9
18 16 12 9 10 10 9 9 9 7 5 4 6 5 4 4 5 4 1 1 5 5 2 3 2 3 2 2 4 6 2 2 3 3 2 3 3 1 3 4 4 2 3 4 6 4 7 7 2 5 5 5 2 0 4 3 3 4 5 5 7 7 6 7 4 5 5 4 5 8 10 6 7 14 13 4 5 8 8 8 8 8 9 8 8 8 8 9
16 15 12 9 9 10 8 8 6 3 3 2 4 4 4 5 6 4 1 2 3 6 3 2 1 2 4 3 4 4 1 2 3 2 0 3 4 2 1 2 3 2 5 4 5 3 8 5 4 6 2 3 4 3 4 7 3 5 5 9 10 10 9 8 5 5 5 5 4 3 6 6 3 8 10 1 3 8 6 9 12 9 8 8 8 8 7 7
14 14 12 9 8 9 7 4 2 2 3 0 2 2 3 5 6 5 2 4 3 5 0 1 1 3 5 3 3 3 2 3 3 0 2 2 3 2 1 1 1 1 4 3 1 2 3 3 4 6 4 4 4 5 5 7 4 3 5 6 7 7 7 7 4 3 2 4 3 3 1 8 2 4 8 4 7 10 7 9 12 10 9 9 8 8 7 7
12 14 13 8 6 8 5 2 2 2 1 1 0 1 3 5 6 4 2 4 4 4 3 1 1 3 5 2 2 4 2 3 1 2 1 2 1 2 2 2 0 1 3 3 2 3 3 2 4 4 4 4 4 5 5 7 6 3 4 3 3 3 5 4 1 2 4 2 6 2 4 7 7 6 7 7 9 10 9 11 11 10 11 10 9 8 8 7
13 15 13 7 3 6 4 3 3 2 2 2 0 1 3 5 5 2 4 2 4 1 2 1 1 3 2 1 2 3 2 1 3 1 1 2 1 3 1 5 5 5 3 5 3 6 3 3 4 4 3 3 6 6 7 9 4 5 4 3 2 2 4 2 1 5 3 3 8 6 6 4 10 5 1 3 7 10 12 14 13 13 13 11 9 9 8 8
15 16 13 7 3 4 4 4 4 2 3 2 1 3 5 5 3 4 4 2 3 0 1 1 3 1 1 2 0 1 0 1 2 2 2 2 1 4 1 5 6 5 3 4 5 7 2 4 7 7 4 5 6 5 6 8 4 3 3 2 2 1 2 1 2 3 2 1 10 8 7 4 9 3 3 1 5 11 13 13 12 13 12 10 10 9 8 7
14 13 10 6 4 4 5 6 5 5 4 2 3 4 5 4 4 4 1 4 2 1 1 1 2 2 4 3 2 1 2 2 1 1 2 1 2 5 1 1 5 4 1 3 3 5 3 1 3 4 4 5 4 2 2 4 3 2 4 4 5 4 2 2 1 1 3 3 11 8 12 9 7 3 6 4 6 9 11 8 9 12 12 11 10 9 8 7
14 13 8 6 6 5 3 3 3 5 4 4 5 5 4 2 4 4 5 5 2 1 1 1 2 2 5 5 2 2 2 2 1 2 1 1 2 3 1 0 3 3 3 4 3 5 4 0 2 2 2 4 6 3 2 3 2 4 4 4 4 5 4 4 4 3 1 6 7 4 9 10 8 5 5 8 7 6 8 10 14 17 15 12 10 8 8 7
13 12 8 8 8 7 5 2 2 2 3 6 6 4 4 0 0 4 5 4 2 3 3 3 2 3 5 3 1 3 3 2 3 4 4 3 2 3 3 4 2 2 4 2 2 5 3 4 4 3 1 4 6 3 2 5 5 4 3 3 3 5 4 3 3 0 3 7 3 1 3 6 10 9 7 11 11 8 7 10 15 18 16 13 11 9 8 7
12 11 10 10 10 9 8 5 3 2 4 7 4 4 5 3 5 6 5 3 2 2 2 2 1 3 6 3 3 4 3 3 4 4 3 3 2 4 4 5 6 3 4 3 1 4 3 5 2 1 2 3 7 5 2 2 1 4 3 3 2 1 3 5 4 3 5 6 2 3 2 4 8 7 7 10 11 8 8 9 11 14 16 14 11 9 7 7
12 11 12 12 10 10 10 7 5 3 4 5 3 4 4 5 6 5 6 6 3 1 1 2 3 3 4 3 4 4 3 3 4 4 2 2 1 3 4 5 5 5 2 2 1 2 3 5 3 5 2 4 7 6 5 5 3 4 4 4 4 3 2 5 4 5 8 7 4 1 2 4 4 3 5 7 7 4 4 5 6 9 11 10 9 8 7 7
13 12 12 12 12 12 11 9 6 4 5 4 4 4 7 7 4 3 5 5 2 1 1 1 4 4 2 3 3 3 4 4 1 4 3 3 4 4 4 5 6 5 4 3 2 2 4 6 6 2 1 5 6 4 4 6 2 2 3 4 2 4 5 4 5 5 4 7 6 3 4 6 4 2 2 2 3 3 3 5 9 10 9 9 8 8 7 7
13 10 10 13 14 13 12 10 6 5 5 6 4 7 9 6 4 4 4 4 4 4 3 2 3 4 4 3 3 3 1 1 1 2 3 3 3 5 5 5 7 9 7 5 3 2 2 5 4 1 1 2 4 3 3 3 2 1 2 3 4 4 5 2 6 3 2 4 7 3 6 7 1 2 2 3 3 2 3 5 10 10 10 9 8 8 7 7
13 8 8 14 16 14 15 11 6 6 5 5 7 10 6 6 6 5 4 3 3 5 6 2 2 5 5 3 4 5 1 0 1 2 3 2 3 5 6 4 5 12 12 6 3 4 3 4 4 3 2 2 1 2 2 2 3 5 3 5 3 1 2 2 2 3 1 5 6 3 9 12 5 3 3 3 2 4 4 6 8 8 9 9 8 8 7 7
13 8 8 16 19 16 16 14 9 7 5 3 9 10 5 6 6 5 5 4 3 4 5 5 5 5 6 4 4 4 4 3 3 3 3 3 4 5 6 4 5 9 9 5 2 2 2 3 5 1 2 1 2 2 1 3 1 4 3 3 2 1 2 1 2 3 3 5 7 6 10 13 9 5 2 5 9 10 8 7 8 10 11 10 8 8 8 7
11 4 6 15 21 19 18 16 11 6 3 6 11 9 4 5 7 7 6 4 2 3 4 6 5 4 5 6 4 3 5 6 5 4 3 3 4 5 6 4 4 2 2 5 5 2 3 2 4 1 1 1 2 2 3 2 1 2 1 2 0 3 3 2 2 2 3 6 9 8 10 11 7 6 8 12 14 14 12 10 11 13 12 10 8 8 8 7
9 2 3 10 21 23 20 15 8 5 5 8 9 6 3 4 7 8 8 6 4 3 4 5 5 5 4 5 4 3 4 6 6 4 4 4 4 5 5 5 4 2 2 4 3 1 2 2 3 2 3 1 3 4 7 8 5 2 2 2 3 2 1 2 2 3 3 6 7 6 11 13 4 5 8 12 13 15 15 14 14 12 11 10 9 9 8 7
7 4 3 11 25 28 21 11 5 5 6 7 7 6 5 4 4 6 9 10 7 3 4 5 6 6 5 4 4 4 4 4 5 5 4 5 5 5 6 7 8 7 3 4 1 3 3 3 4 2 1 4 6 5 6 8 8 6 6 7 7 6 2 3 5 3 3 6 6 3 12 14 3 4 6 7 10 12 14 16 13 10 11 11 9 9 9 7
5 5 2 14 30 30 18 6 5 5 5 7 6 5 5 5 4 6 8 9 8 6 2 3 6 7 6 6 6 6 5 4 6 6 5 7 9 7 6 7 10 10 7 3 2 3 3 3 3 4 4 5 5 4 1 2 2 3 5 6 6 6 6 6 8 4 3 6 5 0 10 13 2 5 5 5 8 10 12 15 12 10 11 11 9 9 8 7
6 4 3 16 31 26 11 6 5 4 5 6 5 6 5 4 4 6 7 7 7 6 5 5 5 7 7 6 6 6 6 5 7 8 6 6 8 6 4 8 10 8 5 2 1 1 2 2 3 5 4 1 2 4 4 4 3 2 5 5 6 9 9 8 6 1 1 7 3 1 12 13 1 2 2 2 3 7 11 13 12 10 9 9 10 9 7 7
4 3 2 17 30 20 8 7 7 7 8 6 7 10 8 6 7 8 9 10 8 5 7 7 5 7 9 6 7 7 7 7 7 8 8 6 4 2 1 7 10 8 5 3 4 4 3 2 3 3 5 5 3 3 4 3 1 4 6 6 9 12 8 3 1 1 5 8 6 5 15 13 1 4 2 3 4 6 8 8 9 10 9 8 8 8 7 7
4 3 1 13 24 15 6 4 4 6 10 10 10 12 10 8 9 12 11 11 9 6 5 7 6 8 6 4 5 8 9 9 8 6 6 5 3 2 1 4 8 7 4 2 3 6 5 4 5 5 5 7 7 5 2 3 3 3 4 7 11 13 12 6 2 4 10 8 8 12 16 14 7 1 3 1 5 6 6 6 7 8 9 9 8 8 7 7
4 3 2 6 10 8 5 4 3 3 7 8 7 10 15 14 10 9 12 12 9 7 6 6 4 5 6 7 8 10 10 11 9 5 4 5 4 2 0 1 3 5 3 1 2 5 3 2 7 10 11 12 13 12 4 5 4 5 8 11 12 13 14 9 4 9 12 6 9 19 17 18 21 9 3 6 6 7 7 8 8 8 9 10 9 8 7 6
5 5 7 6 4 7 8 7 6 5 5 8 7 8 15 19 12 7 10 11 9 9 8 7 5 8 9 10 10 11 12 12 10 9 6 5 3 2 1 1 1 3 4 2 2 4 4 5 11 13 16 17 19 17 6 5 9 14 14 13 11 11 13 12 13 17 13 4 14 24 16 17 27 17 7 9 9 8 9 10 11 10 10 9 8 8 8 7
6 4 8 10 6 7 11 12 12 10 12 12 9 7 10 16 16 12 9 8 8 11 9 7 12 18 16 12 10 11 12 11 10 11 9 6 5 2 0 1 2 3 4 3 2 3 4 8 12 11 16 20 20 17 8 6 9 13 19 17 9 12 16 19 21 22 15 11 20 27 20 21 27 17 7 10 12 12 12 12 11 10 10 9 8 9 9 8
7 3 5 10 8 8 12 16 16 16 20 17 9 11 16 18 19 14 8 6 7 13 14 13 18 21 18 14 12 12 14 12 11 13 11 11 11 7 2 3 2 2 3 4 2 2 4 8 10 9 13 18 18 13 9 10 11 14 24 21 9 13 19 19 20 23 21 21 26 27 27 30 28 17 10 10 10 10 10 9 9 9 11 11 11 11 10 9
8 3 5 7 8 9 8 11 13 14 19 16 12 17 19 19 19 13 9 11 12 13 16 21 23 19 18 18 17 19 22 18 15 16 13 12 12 7 5 6 4 2 3 5 2 2 4 5 4 4 7 15 15 10 8 9 11 17 26 22 13 15 18 17 20 23 20 22 27 26 24 27 25 17 11 9 7 7 7 10 11 11 12 12 12 12 10 9
13 5 9 6 6 10 7 6 10 11 12 13 15 19 17 18 22 16 10 15 19 16 16 24 27 16 13 19 23 27 28 22 19 21 17 15 12 9 7 7 8 7 5 6 4 3 5 3 1 4 5 13 7 1 2 2 5 16 27 25 19 18 18 18 20 21 20 21 23 20 17 21 20 10 6 8 9 10 11 13 12 11 12 14 14 13 11 10
15 6 10 6 6 10 9 8 11 10 11 14 18 19 17 19 22 16 9 12 20 19 15 20 23 14 11 22 30 32 28 21 17 15 10 7 6 5 4 5 10 11 8 7 5 4 6 5 2 4 6 9 1 5 4 3 4 14 20 19 19 21 21 20 18 22 23 18 14 14 16 19 14 4 5 8 9 11 11 12 12 11 12 14 13 12 11 10
Wind_Direction
19 19 18 17 17 17 17 16 16 16 16 16 16 17 18 19 19 21 20 15 16 23 37 61 135 146 141 132 117 111 68 50 53 52 53 12 353 358 359 353 355 6 9 4 8 21 17 8 358 357 6 11 22 344 339 359 57 56 78 72 50 197 116 167 169 177 148 146 248 301 339 125 125 129 133 59 57 82 77 67 69 70 72 95 115 116 96 80
16 15 15 14 14 14 14 14 14 13 13 12 12 12 14 16 15 16 18 15 14 18 29 46 130 158 150 142 137 111 32 16 35 41 28 0 2 7 3 3 4 9 10 5 6 14 4 332 333 356 22 26 342 345 4 354 58 79 109 63 259 201 156 205 163 160 149 149 201 271 208 121 130 157 140 99 101 101 92 82 80 85 78 90 104 97 84 76
12 11 11 11 11 11 12 12 12 11 11 10 8 8 8 11 11 10 13 13 12 15 19 29 90 171 165 155 150 77 359 354 20 15 359 359 8 7 5 5 5 10 10 8 3 1 344 305 310 350 34 18 334 355 27 6 46 109 104 54 252 207 166 272 164 157 175 154 151 215 195 74 55 150 113 119 131 116 125 142 129 120 127 112 95 87 83 76
8 7 7 8 7 8 9 9 10 10 9 8 6 4 4 6 8 6 7 9 9 12 12 18 42 173 179 169 152 85 0 23 10 320 342 2 11 6 10 5 3 11 10 17 21 14 10 336 316 37 54 7 327 9 46 341 28 110 122 165 231 198 134 241 182 159 164 144 144 170 101 77 41 66 121 135 119 123 187 184 165 154 151 136 117 96 89 82
5 4 4 4 4 4 6 6 7 9 7 6 4 1 360 1 3 3 2 3 5 8 10 9 21 156 184 181 161 99 26 45 291 307 343 8 19 9 20 17 8 9 13 26 30 34 36 28 43 49 43 16 342 13 11 294 90 76 261 204 205 168 127 201 191 170 155 113 110 121 107 128 90 52 131 148 140 202 199 180 158 149 147 139 133 116 99 91
2 2 3 2 2 1 2 3 4 6 5 4 2 359 357 356 358 360 358 358 359 3 8 8 14 98 174 183 181 181 78 132 260 320 339 17 24 8 23 23 13 358 360 20 23 34 37 25 47 45 18 34 6 6 268 304 67 89 289 278 222 167 130 186 187 191 155 106 105 143 139 108 87 72 136 141 152 174 153 146 143 139 142 134 127 122 109 102
1 1 1 1 1 359 359 360 360 1 1 1 359 356 354 352 353 355 353 352 353 357 5 11 22 98 131 163 179 112 93 194 255 296 317 37 17 5 20 18 13 345 341 20 19 28 47 34 44 66 45 40 19 271 290 325 27 132 257 302 261 175 151 183 178 180 136 111 128 133 118 133 142 145 97 105 131 133 130 137 135 135 137 128 120 119 117 118
358 358 359 360 359 358 357 356 357 357 356 356 355 353 350 349 349 351 349 345 346 351 358 10 107 135 121 141 160 60 39 218 227 211 200 32 344 5 12 5 12 351 16 42 28 31 64 45 36 56 54 39 38 340 328 343 3 150 226 282 283 220 194 169 156 151 123 117 106 88 124 188 169 145 107 136 143 132 135 133 132 133 131 125 121 122 121 121
355 354 356 358 357 357 355 354 354 352 352 351 350 350 347 345 346 348 346 341 342 345 350 3 178 171 160 134 113 84 258 205 167 195 162 306 306 357 358 8 19 11 50 51 35 55 75 71 20 58 87 243 25 335 347 25 315 221 219 273 317 300 297 217 156 160 141 150 114 80 34 203 155 113 96 174 163 143 138 133 139 133 129 130 129 135 132 127
350 352 353 354 355 354 352 352 352 350 350 347 346 347 345 343 342 344 345 342 338 340 345 354 141 172 191 162 82 120 221 171 154 166 138 259 299 344 345 14 24 23 52 42 35 55 87 152 189 123 139 200 359 311 343 94 239 239 251 284 281 287 294 285 203 190 150 161 129 121 193 190 184 8 158 203 177 151 137 137 149 131 134 142 140 146 136 130
346 349 349 350 352 350 350 350 349 348 347 346 344 343 344 342 339 340 343 342 335 337 342 317 141 154 187 146 103 195 196 147 143 113 114 136 25 355 334 14 28 34 45 50 56 64 96 150 163 121 118 47 327 307 283 218 251 289 337 318 298 312 306 240 186 199 151 155 132 122 125 189 207 296 215 186 170 159 143 142 155 138 147 155 151 154 143 135
342 345 345 346 347 347 346 346 346 346 344 344 342 341 342 340 335 335 340 338 328 334 340 292 195 168 162 98 111 177 159 143 123 90 81 82 50 9 22 16 28 38 37 57 90 86 85 121 120 105 272 158 314 332 250 242 290 309 21 327 303 346 331 261 184 187 161 177 159 118 59 283 213 257 214 161 156 156 143 148 160 150 161 164 156 162 157 144
335 340 341 340 341 343 342 341 343 343 342 342 340 339 338 336 331 330 337 335 328 333 335 312 182 165 142 68 152 143 140 141 103 76 58 47 32 30 39 6 16 32 33 56 99 105 83 86 110 113 155 117 257 276 131 4 346 294 37 37 306 0 327 284 90 148 157 173 170 142 276 254 221 240 201 152 155 149 149 163 170 164 169 167 163 162 163 163
329 333 334 335 335 337 337 337 339 339 339 339 338 336 334 333 327 324 331 334 337 333 315 49 163 160 126 202 184 154 162 158 107 63 57 39 35 101 14 355 8 31 41 55 73 90 85 72 92 92 104 137 260 291 1 2 10 285 2 49 358 4 285 295 27 138 162 205 154 144 246 253 237 238 194 167 161 154 162 177 177 176 178 174 173 164 171 188
320 325 329 330 330 333 334 334 335 336 337 336 335 334 331 329 321 318 315 320 342 330 257 152 175 155 86 258 197 173 188 201 200 4 49 25 36 128 334 344 13 64 63 67 70 84 94 65 76 80 293 314 34 24 353 345 2 27 359 326 334 191 265 305 305 162 180 253 134 142 239 265 252 229 191 173 168 162 168 182 183 184 186 181 181 174 180 199
314 319 324 326 328 330 330 332 333 334 335 334 334 330 329 326 314 311 287 282 333 318 215 177 187 144 90 237 172 172 201 217 217 233 243 354 12 2 348 13 120 99 104 114 90 85 83 59 63 97 347 9 61 71 29 6 342 360 50 275 275 226 279 317 311 206 184 204 194 185 229 271 260 215 188 176 177 172 173 186 189 190 191 183 182 184 185 196
309 313 319 324 326 328 328 330 331 333 335 334 333 330 329 324 307 304 273 272 327 309 190 238 194 131 65 149 143 194 215 204 211 219 227 326 344 337 3 87 104 101 114 112 103 354 30 47 23 335 41 38 71 82 37 352 313 327 7 281 259 245 267 295 305 299 157 175 236 213 224 253 250 195 186 186 181 179 184 189 192 192 190 186 185 188 190 187
302 307 313 319 323 325 327 329 329 333 336 335 335 331 326 319 305 296 254 287 330 114 163 298 155 83 284 206 183 217 178 184 220 225 224 272 324 335 15 96 88 98 68 29 28 18 5 18 47 35 15 11 37 80 119 243 228 263 284 288 290 275 253 251 273 291 149 207 243 218 239 255 250 201 195 196 185 190 196 191 193 191 187 192 190 190 194 186
293 300 306 311 318 322 325 328 330 334 337 338 339 333 325 322 314 286 290 340 339 160 242 255 191 176 251 249 227 186 162 217 247 224 211 236 308 341 70 86 60 89 67 22 346 7 47 24 31 18 329 286 217 135 175 209 195 219 244 237 262 276 270 257 250 258 213 230 251 230 241 254 244 212 202 200 192 198 202 192 193 193 191 195 194 196 193 188
287 293 297 304 311 317 322 327 328 334 340 342 343 343 340 352 351 320 339 342 260 202 262 229 221 253 270 283 205 198 252 244 243 209 198 241 251 105 83 41 31 46 60 75 297 327 84 47 315 246 245 227 212 193 187 195 182 191 213 232 243 244 271 273 265 272 201 196 256 235 233 252 248 225 209 198 192 201 202 198 201 197 195 196 195 197 192 196
286 287 289 297 305 311 318 324 328 335 342 344 352 8 86 93 30 312 321 305 267 255 250 239 225 247 261 244 207 220 186 221 284 219 200 262 176 138 123 14 46 24 321 188 297 343 63 42 258 235 225 210 198 197 191 185 179 192 208 253 274 239 256 273 271 281 161 172 266 254 237 253 252 240 219 187 188 204 201 200 202 196 198 199 193 194 195 199
286 285 287 293 301 308 312 320 326 331 338 346 16 80 149 156 147 199 264 296 287 274 227 245 230 256 263 227 219 178 97 147 291 251 215 227 128 170 239 67 97 248 311 32 11 356 21 266 256 247 203 163 126 162 177 208 201 202 179 253 289 257 268 290 291 305 41 203 274 275 256 254 257 255 231 193 195 209 205 203 201 191 193 194 190 192 192 193
283 284 290 293 300 305 307 317 321 326 340 3 57 111 152 158 157 174 141 285 291 293 238 235 209 237 281 248 209 160 129 190 222 247 220 147 163 191 131 105 126 198 6 75 143 345 321 253 251 233 145 142 358 28 137 224 261 214 189 211 271 275 287 287 307 338 308 259 260 274 269 251 253 259 246 208 200 211 211 209 205 195 193 189 188 189 184 186
281 286 292 293 300 302 303 311 313 319 341 37 74 108 148 162 160 158 132 310 291 290 264 218 194 192 204 205 175 156 155 204 189 230 213 139 149 144 139 143 125 149 219 167 146 182 254 250 177 108 118 152 199 232 147 187 281 260 216 209 249 270 251 245 288 339 317 298 275 286 288 254 219 240 250 220 189 212 204 196 202 206 200 186 189 193 187 188
282 290 295 296 299 299 305 308 299 308 335 56 82 91 127 162 169 153 87 20 310 299 291 241 221 197 192 143 156 172 164 242 217 226 232 129 150 135 145 163 117 187 223 164 131 215 260 267 118 123 124 140 177 228 189 181 234 295 244 216 233 254 257 265 323 359 337 314 307 340 308 275 209 231 250 89 175 214 191 192 202 199 195 191 194 195 194 196
284 289 293 294 299 300 302 296 280 331 335 89 92 72 122 160 172 171 85 49 300 278 210 200 201 176 187 148 160 161 99 281 265 148 58 101 149 127 132 213 42 214 203 154 138 242 261 339 74 133 159 146 179 249 227 172 149 291 258 209 216 236 254 274 322 354 277 265 296 67 264 275 269 222 239 188 199 219 198 205 206 193 193 196 193 188 189 197
280 286 286 284 310 317 306 248 248 293 283 216 32 46 140 157 172 193 50 34 284 239 139 233 301 153 180 181 154 143 168 271 355 35 55 95 34 65 133 224 65 217 195 108 340 269 173 53 42 101 135 162 200 254 226 159 135 243 253 126 135 211 245 267 309 267 245 276 293 220 166 274 275 247 237 185 196 226 215 213 209 196 199 196 191 189 187 191
274 279 280 277 320 322 290 251 260 243 196 205 271 81 134 155 171 145 70 26 271 201 128 247 136 137 163 115 117 136 216 246 121 256 344 80 22 59 110 215 178 200 195 124 261 268 169 173 203 156 131 191 214 229 192 154 158 246 223 122 104 202 231 249 240 257 280 14 290 246 143 258 271 258 308 155 198 235 226 215 208 199 200 193 188 192 192 191
274 276 278 273 304 300 253 256 269 230 209 197 119 118 130 150 158 77 81 232 268 109 100 107 131 152 80 81 341 105 307 328 149 249 349 67 46 65 142 211 159 184 215 142 219 249 220 207 196 155 158 215 219 223 180 159 195 237 155 104 23 20 230 232 241 265 27 25 267 248 151 215 269 224 110 111 221 237 230 216 206 202 202 194 187 192 193 185
278 283 278 261 282 274 241 262 260 228 223 194 133 133 137 130 87 71 158 233 258 248 137 134 173 168 115 124 275 242 183 235 147 30 16 49 16 37 127 187 95 136 268 352 251 251 296 275 174 149 186 199 166 139 140 147 175 124 68 27 358 348 356 40 39 72 59 261 258 232 176 193 271 239 164 190 218 219 216 201 194 204 203 195 191 190 186 175
278 279 266 253 274 260 242 269 226 201 200 167 149 136 129 70 71 126 216 243 261 253 132 195 208 124 131 155 203 181 173 233 176 133 143 160 16 31 93 320 42 68 353 346 298 300 339 27 234 252 192 135 106 90 26 21 69 89 64 36 352 324 359 24 360 53 79 255 263 234 187 194 239 247 201 225 242 221 202 186 190 201 198 190 190 187 180 171
274 264 245 253 268 254 242 243 177 193 188 163 154 114 99 72 196 186 234 296 295 213 176 193 207 162 158 154 203 197 180 214 189 167 170 163 179 186 187 206 184 1 322 283 293 325 309 224 256 309 231 137 114 96 353 356 35 78 78 57 12 325 350 347 302 163 218 245 258 84 162 214 242 249 237 238 249 242 210 196 195 195 187 183 185 182 175 165
261 249 240 255 263 255 248 247 253 253 187 167 151 64 87 167 227 208 216 266 243 216 154 129 132 145 145 139 243 216 178 215 199 174 174 151 190 239 249 218 165 160 257 225 323 325 297 295 299 182 273 176 144 148 208 281 90 136 147 133 143 339 327 293 273 278 277 269 264 100 113 263 267 265 247 244 256 247 213 207 202 187 176 177 177 171 168 165
249 235 233 252 258 252 249 248 255 240 191 167 107 76 123 205 235 211 212 229 237 320 25 115 105 108 138 177 234 201 175 234 190 159 176 132 166 241 254 240 172 137 155 175 219 203 234 299 238 181 229 176 171 182 167 143 141 176 159 138 159 165 225 265 263 272 292 297 276 158 157 239 242 261 256 262 281 271 199 186 164 156 161 165 161 159 165 174
242 226 227 249 253 244 242 247 254 230 192 153 106 147 193 211 221 204 219 226 227 307 353 58 96 121 224 271 275 221 202 245 179 135 179 171 181 202 195 214 195 144 126 165 236 179 188 256 252 229 256 163 174 196 137 112 104 227 131 116 190 186 185 243 257 242 288 309 282 218 211 226 205 232 281 309 332 30 89 130 131 142 154 152 160 168 172 181
230 225 229 243 247 237 230 239 244 210 170 129 156 210 213 210 188 188 208 186 177 163 126 40 88 145 243 280 276 253 212 239 162 138 219 217 206 211 204 214 190 169 164 169 207 195 193 264 272 9 329 173 167 179 138 121 171 169 128 187 222 175 145 226 282 302 58 289 275 242 261 274 281 278 321 50 59 82 106 146 146 153 160 159 170 176 177 185
224 234 238 239 242 231 223 231 222 190 146 121 204 218 209 208 191 184 197 162 159 138 128 177 201 181 218 236 228 225 184 262 193 166 222 241 233 204 203 241 195 182 190 178 202 216 197 264 255 152 196 242 183 143 58 25 142 135 182 223 208 99 82 118 279 321 357 250 267 261 270 278 272 269 324 64 173 199 186 171 159 161 169 173 179 180 185 190
226 233 244 237 232 221 219 223 200 168 124 146 226 235 214 208 204 189 180 148 123 113 136 203 216 187 191 201 225 203 170 198 186 172 202 226 248 194 166 213 205 193 202 166 169 240 149 256 272 163 172 297 19 92 35 329 95 134 212 238 133 167 264 128 153 267 262 260 273 275 280 276 249 225 228 202 204 204 197 184 179 184 185 183 182 185 191 192
210 210 257 232 221 214 211 206 181 150 153 202 223 235 209 206 225 214 186 158 150 143 172 218 220 202 180 177 198 183 176 197 177 178 200 190 237 211 168 197 193 190 212 147 167 219 122 208 277 330 290 305 38 126 191 238 6 65 298 309 357 189 206 185 160 199 240 267 278 285 294 282 239 180 196 207 201 194 187 187 197 198 190 184 181 184 190 189
176 204 283 202 202 204 192 177 162 165 209 216 219 225 206 214 233 227 212 203 203 189 202 215 208 212 202 185 196 181 191 203 175 184 218 195 225 231 203 197 158 135 14 78 140 184 108 197 246 327 334 236 179 198 192 185 176 162 196 232 237 204 190 260 219 165 210 260 272 281 281 274 239 161 198 202 199 196 184 186 202 199 185 184 183 182 184 186
157 230 251 177 184 183 167 157 181 198 213 228 227 225 227 234 230 229 224 215 218 222 183 184 199 204 198 203 218 189 180 199 184 192 227 213 219 233 211 187 155 148 96 60 131 201 160 192 207 197 239 211 222 237 202 189 185 180 189 200 206 203 194 266 258 204 183 238 239 256 277 271 227 156 202 189 192 197 183 189 200 189 182 187 187 184 182 184
179 221 201 175 176 166 154 177 215 193 217 228 226 232 231 235 228 222 221 215 224 237 206 200 208 202 202 208 209 192 175 193 199 198 227 222 209 217 213 181 156 151 144 129 211 214 144 135 211 229 221 211 242 289 289 212 202 198 214 199 189 191 180 210 243 225 172 236 228 89 275 267 183 136 197 187 192 188 180 194 194 179 185 185 182 188 183 183
203 202 134 169 172 163 161 220 214 201 232 223 229 251 239 237 238 219 210 207 213 213 217 233 202 198 222 209 193 200 191 202 205 193 220 235 211 215 202 165 156 145 140 151 196 196 120 127 218 264 293 339 334 339 354 15 49 246 242 198 185 205 198 208 231 156 173 239 195 137 259 259 337 73 188 140 174 180 181 193 184 172 185 182 179 187 183 184
189 169 102 171 178 179 194 215 204 213 224 213 224 236 237 246 241 223 207 202 200 188 205 224 201 205 224 194 185 208 194 206 222 202 207 220 211 238 178 167 174 165 167 200 182 174 191 176 178 259 306 315 322 347 342 326 236 228 237 201 205 217 209 220 341 90 255 239 179 211 255 257 314 35 34 85 134 174 184 186 174 170 178 179 179 183 182 182
159 165 124 177 186 196 222 217 195 211 215 214 226 230 234 245 234 222 216 211 207 187 197 226 210 202 208 169 192 216 202 214 234 219 209 214 226 295 27 192 201 189 192 259 181 173 182 181 173 190 237 255 260 255 233 228 214 227 235 212 212 211 202 210 223 222 245 235 194 228 255 267 270 69 45 264 174 172 183 176 179 180 174 176 180 182 183 179
166 190 174 174 191 207 238 230 191 211 207 200 223 230 226 233 236 216 211 218 219 202 216 242 207 184 199 187 202 225 223 225 233 229 205 199 220 256 272 214 216 199 193 58 155 162 142 202 205 205 218 231 248 252 207 137 182 229 230 214 206 204 203 206 217 233 240 240 242 245 250 268 269 252 197 242 209 185 191 177 183 189 177 179 181 177 180 179
187 206 183 164 179 204 222 221 203 215 198 178 193 218 216 223 233 218 201 207 207 201 226 244 202 199 210 192 200 229 229 223 229 231 212 192 219 268 265 177 181 195 173 133 184 139 107 238 224 216 229 235 246 253 226 167 233 250 251 233 202 191 195 199 215 233 237 233 258 256 248 256 265 259 215 219 215 202 201 188 188 189 179 180 176 170 180 187
201 220 183 172 178 196 205 206 198 204 209 200 207 230 223 217 217 211 200 195 191 194 209 227 216 216 212 190 195 227 229 222 229 230 219 212 219 215 169 226 217 210 161 135 243 139 137 241 231 213 236 243 248 255 241 223 250 260 262 254 209 181 195 205 222 234 232 227 250 263 266 261 264 265 233 217 212 207 205 194 188 180 170 172 171 173 183 191
208 259 185 178 194 198 200 201 193 199 212 212 216 235 233 225 217 208 185 172 201 206 203 215 223 218 209 195 196 219 225 216 219 226 219 219 220 197 178 241 228 211 162 156 217 157 160 245 239 214 240 251 250 253 244 245 258 262 262 258 226 204 210 212 231 240 235 238 250 262 270 269 268 269 256 233 210 200 197 181 171 170 171 175 176 180 187 195
207 221 180 181 210 208 203 200 189 199 214 211 218 231 231 230 226 212 178 183 205 207 201 216 226 214 201 203 207 222 227 212 210 223 212 207 219 203 194 216 166 115 189 170 176 227 203 240 241 187 246 262 257 247 232 237 252 261 265 262 242 235 234 228 238 245 243 246 251 256 264 267 269 268 255 234 187 161 164 169 175 180 179 178 180 185 190 195
216 191 161 164 214 204 195 193 186 201 214 205 218 229 226 228 226 214 198 206 212 206 194 211 224 215 196 209 216 226 229 214 212 225 213 196 205 201 204 199 151 148 191 177 161 198 200 228 42 107 237 261 265 232 219 257 277 268 268 263 246 237 239 234 234 239 237 239 249 256 257 259 266 267 234 207 175 164 171 175 181 186 182 181 184 187 191 196
219 191 168 179 212 197 193 200 192 201 216 210 217 224 222 227 224 210 210 224 222 219 206 207 217 213 200 215 221 226 229 219 215 228 219 187 182 185 196 183 168 168 169 167 178 179 174 194 165 146 227 260 332 87 100 59 309 268 262 252 233 227 232 237 241 242 234 228 239 247 243 251 262 251 202 206 186 179 183 179 180 184 185 186 185 184 188 195